Flag for France

Past Weather in Bordeaux, Nouvelle-Aquitaine, France — Yesterday and Last 2 Weeks

Currently: 52 °F. Drizzle. Fog. (Weather station: Bordeaux / Merignac, France). See more current weather

Past Weather in Bordeaux — Graph

°F

Bordeaux Temperature Yesterday

Maximum temperature yesterday: 46 °F (at 3:00 pm)
Minimum temperature yesterday: 28 °F (at 3:30 am)
Average temperature yesterday: 38 °F

High & Low Weather Summary for the Past Weeks

 TemperatureHumidityPressure
High59 °F (Jan 19, 3:00 pm)100% (Jan 12, 6:00 pm)30.45 "Hg (Jan 12, 6:00 pm)
Low28 °F (Jan 16, 5:00 am)48% (Jan 19, 4:00 pm)29.33 "Hg (Jan 22, 6:00 am)
Average45 °F86%30.05 "Hg
* Reported Jan 12 8:00 am — Jan 27 8:00 am, Bordeaux. Weather by CustomWeather, © 2021

Note: Actual official high and low records may vary slightly from our data, if they occured in-between our weather recording intervals... More about our weather records

Bordeaux Weather History for the Previous 24 Hours

Scroll right to see more
 ConditionsComfort  
Time TempWeatherWind HumidityBarometerVisibility
8:00 am
Wed, Jan 27
52 °FDrizzle. Fog.5 mph100%30.12 "Hg2 mi
7:30 am52 °FLow clouds.5 mph100%30.12 "Hg6 mi
7:00 am52 °FMostly cloudy.7 mph100%30.09 "Hg4 mi
6:30 am52 °FMostly cloudy.9 mph100%30.09 "HgN/A
6:00 am54 °FLow clouds.10 mph94%30.09 "HgN/A
5:30 am54 °FMostly cloudy.12 mph94%30.09 "HgN/A
5:00 am54 °FMostly cloudy.13 mph94%30.07 "HgN/A
4:30 am52 °FLow clouds.12 mph100%30.07 "Hg4 mi
4:00 am50 °FFog.7 mph100%30.09 "Hg1 mi
3:30 am46 °FFog.3 mph93%30.09 "Hg1 mi
3:00 am45 °FFog.1 mph100%30.07 "Hg1 mi
2:30 am45 °FDrizzle. Fog.3 mph100%30.09 "Hg1 mi
2:00 am45 °FFog.3 mph100%30.09 "Hg1 mi
1:30 am45 °FDrizzle. Fog.3 mph100%30.09 "Hg1 mi
1:00 am45 °FLow clouds.3 mph87%30.09 "Hg6 mi
12:30 am43 °FLow clouds.5 mph87%30.09 "HgN/A
12:00 am43 °FLow clouds.5 mph87%30.12 "HgN/A
11:30 pm
Tue, Jan 26
43 °FLow clouds.6 mph81%30.12 "HgN/A
11:00 pm43 °FOvercast.5 mph81%30.12 "HgN/A
10:30 pm43 °FOvercast.6 mph81%30.12 "HgN/A
10:00 pm43 °FOvercast.5 mph81%30.15 "HgN/A
9:30 pm43 °FLight rain. Overcast.6 mph81%30.15 "HgN/A
9:00 pm43 °FMostly cloudy.6 mph76%30.15 "HgN/A
8:30 pm43 °FPassing clouds.6 mph76%30.15 "HgN/A
8:00 pm43 °FClear.7 mph71%30.15 "Hg10 mi
7:30 pm43 °FClear.6 mph71%30.15 "Hg10 mi
7:00 pm43 °FClear.7 mph71%30.15 "Hg10 mi
6:30 pm43 °FClear.7 mph71%30.15 "Hg10 mi
6:00 pm43 °FClear.9 mph71%30.15 "Hg10 mi
5:30 pm45 °FSunny.9 mph71%30.15 "Hg10 mi
5:00 pm45 °FSunny.10 mph66%30.15 "Hg10 mi
4:30 pm45 °FSunny.10 mph71%30.15 "Hg10 mi
4:00 pm45 °FSunny.9 mph66%30.18 "Hg10 mi
3:30 pm46 °FSunny.9 mph66%30.15 "Hg10 mi
3:00 pm46 °FSunny.10 mph62%30.15 "Hg10 mi
2:30 pm45 °FSunny.9 mph66%30.15 "Hg10 mi
2:00 pm45 °FSunny.9 mph66%30.18 "Hg10 mi
1:30 pm45 °FSunny.9 mph66%30.18 "Hg10 mi
1:00 pm43 °FPassing clouds.9 mph71%30.21 "HgN/A
12:30 pm43 °FPassing clouds.8 mph66%30.21 "HgN/A
12:00 pm41 °FSunny.10 mph66%30.21 "Hg10 mi
11:30 am39 °FSunny.7 mph75%30.21 "Hg10 mi
11:00 am37 °FSunny.6 mph75%30.24 "Hg10 mi
10:30 am36 °FSunny.8 mph81%30.21 "Hg10 mi
10:00 am34 °FSunny.12 mph87%30.21 "Hg10 mi
9:30 am34 °FSunny.10 mph87%30.21 "Hg10 mi
9:00 am32 °FSunny.9 mph93%30.21 "Hg10 mi
Weather by CustomWeather, © 2021

See weather overview